Погода во Владиславовке

Россия / Республика Крым     45°09′51″N   35°22′41″E
темп.,
°C
ветер,
м/с
пор.,
м/с
влажн.,
%
обл.,
%
осадки,
мм/ч
давл.,
гПа
погр.,
м
18 мая, вт
вт1800:00+14ю58935 0.2 1009243
03:00+13ююз47944 0.2 1008212
06:00+14ююз59905 0.0 1008323
09:00+18ю810705 0.0 1008521
12:00+18ю912695 0.0 1008703
15:00+16ю91382100 0.0 1007587
18:00+15ю81288100 0.3 1007476
21:00+14ю4689100 0.3 1006147
19 мая, ср
ср1900:00+15ююз61080100 0.0 1006346
03:00+14ююз71083100 0.0 1007320
06:00+14юз478598 0.3 1007163
09:00+17юз57605 0.5 10071056
12:00+18зюз71058100 0.5 10081270
15:00+15зюз71176100 1.2 10101140
18:00+16зюз8127143 0.1 10111218
21:00+14юз611752 0.1 1012387
20 мая, чт
чт2000:00+13юз488267 0.0 1013170
03:00+13ю44815 0.0 101368
06:00+14ю468569 0.0 1013134
09:00+18ю456065 0.0 1013380
12:00+20ююв56480 0.0 1012543
15:00+20ююв67500 0.0 1012542
18:00+20юв57550 0.0 1011311
21:00+15вюв346493 0.0 101044
21 мая, пт
пт2100:00+15вюв347796 0.0 100956
03:00+16юв2280100 0.0 100933
06:00+16зсз457577 0.0 100985
09:00+18зсз4569100 0.1 1009252
12:00+19ссз666297 0.0 1008326
15:00+20с566917 0.0 1008354
18:00+18ссз567834 0.0 1007249
21:00+16сз46907 0.0 100689
22 мая, сб
сб2200:00+16зсз58905 0.0 1005134
03:00+16зсз712885 0.0 1005253
06:00+16зсз699052 0.0 1006232
09:00+19сз6787100 0.0 1007358
12:00+19ссз5586100 0.0 1007303
15:00+20с4683100 0.0 1008271
18:00+20сз238269 0.0 1008175
21:00+17в3494100 0.0 100979